Flag for U.S.A. Weather past 2 weeks in Port St. Lucie, Florida, U.S.A.

Now
81 °F

Scattered clouds.


Feels Like: 85 °F
Forecast: 72 / 86 °F
Wind: 8 mph from West

Location: Witham Field Airport

Current Time: Sep 17, 2014 at 10:19:32 AM

Latest Report: Sep 17, 2014 at 9:47 AM


Visibility: 7 mi

Pressure: 29.97 "Hg

Humidity: 74%

Dew point: 72 °F

Location of Port St. LucieLocation

Historic Weather in Port St. Lucie — Graph

°F

Port St. Lucie temperature yesterday

Maximum temperature yesterday: 86 °F (at 11:47 AM)
Minimum temperature yesterday: 73 °F (at 10:35 PM)
Average temperature yesterday: 78 °F

Past Weeks' High & Low Weather Summary

 TemperatureHumidityPressure
High88 °F (Sep 2, 12:47 PM)100% (Sep 4, 5:55 AM)30.18 "Hg (Sep 4, 5:55 AM)
Low45 °F (Sep 10, 8:47 AM)58% (Sep 14, 11:47 AM)29.91 "Hg (Sep 12, 3:55 AM)
Average77 °F86%30.05 "Hg
* Reported Sep 2 8:47 AM — Sep 17 8:47 AM, Port St. Lucie, Weather by CustomWeather, © 2014

Note: Actual official high and low records may vary slightly from our data, if they occured in-between our weather recording intervals... More about our weather records

Advertising

Port St. Lucie weather history for previous 24 hours

 ConditionsComfort  
Time TempWeatherWind HumidityBarometerVisibility
8:47 AM
Sep 17
77 °FScattered clouds.6 mph83%29.97 "Hg7 mi
7:47 AM73 °FPassing clouds.No wind94%29.97 "Hg7 mi
6:47 AM73 °FPassing clouds.No wind94%29.96 "Hg7 mi
6:15 AM72 °FClear.5 mph94%29.95 "Hg10 mi
5:55 AM72 °FClear.5 mph100%29.95 "Hg10 mi
5:35 AM72 °FClear.5 mph94%29.95 "Hg10 mi
4:55 AM72 °FClear.5 mph94%29.95 "Hg10 mi
4:35 AM72 °FClear.5 mph100%29.95 "Hg10 mi
4:15 AM72 °FClear.5 mph100%29.95 "Hg10 mi
3:55 AM72 °FClear.3 mph94%29.95 "Hg10 mi
3:35 AM73 °FClear.3 mph94%29.95 "Hg10 mi
3:15 AM73 °FClear.3 mph94%29.97 "Hg10 mi
2:55 AM73 °FClear.5 mph94%29.97 "Hg10 mi
2:35 AM73 °FClear.5 mph94%29.98 "Hg10 mi
1:55 AM73 °FClear.5 mph94%29.99 "Hg10 mi
1:35 AM73 °FClear.6 mph94%30.00 "Hg10 mi
1:15 AM73 °FPassing clouds.7 mph94%30.00 "Hg10 mi
12:55 AM73 °FThundershowers. Passing clouds.5 mph94%30.01 "Hg10 mi
12:35 AM73 °FPartly cloudy.6 mph94%30.02 "Hg10 mi
12:15 AM73 °FPartly cloudy.6 mph94%30.02 "Hg10 mi
11:55 PM
Sep 16
75 °FPartly cloudy.No wind94%30.02 "Hg10 mi
11:35 PM75 °FThundershowers. Overcast.3 mph94%30.02 "Hg10 mi
11:15 PM77 °FPassing clouds.No wind83%30.03 "Hg10 mi
10:55 PM75 °FThundershowers. Passing clouds.No wind89%30.02 "Hg10 mi
10:35 PM73 °FRain. Passing clouds.6 mph94%30.02 "Hg10 mi
10:15 PM75 °FPassing clouds.9 mph83%30.03 "Hg10 mi
9:55 PM77 °FThundershowers. Partly cloudy.9 mph79%30.04 "Hg10 mi
9:35 PM77 °FThunderstorms. Partly cloudy.9 mph79%30.04 "Hg10 mi
9:15 PM79 °FThunderstorms. Partly cloudy.9 mph79%30.02 "Hg10 mi
8:55 PM79 °FThundershowers. Clear.3 mph79%30.01 "Hg10 mi
8:35 PM79 °FThundershowers. Clear.3 mph79%30.01 "Hg10 mi
8:15 PM79 °FSunny.5 mph84%30.00 "Hg10 mi
6:47 PM82 °FBroken clouds.5 mph70%29.99 "Hg7 mi
5:47 PM82 °FBroken clouds.6 mph70%29.99 "Hg7 mi
4:47 PM84 °FBroken clouds.5 mph62%29.99 "Hg7 mi
3:47 PM82 °FThundershowers. Broken clouds.3 mph66%30.02 "Hg7 mi
2:47 PM84 °FThundershowers. Broken clouds.7 mph66%30.03 "Hg7 mi
1:47 PM86 °FThundershowers. Broken clouds.10 mph62%30.05 "Hg7 mi
12:47 PM86 °FScattered showers. Broken clouds.9 mph62%30.07 "Hg7 mi
11:47 AM86 °FScattered clouds.8 mph66%30.09 "Hg7 mi
10:47 AM84 °FScattered clouds.No wind66%30.09 "Hg7 mi
Weather by CustomWeather, © 2014

See weather overviewHow to use our weather pages